{"data":{"norad_id":59669,"epoch":"2026-09-21T09:29:56.928192Z","epoch_age_seconds":93849,"freshness":"FRESH","line1":"1 59669U 24084R   26264.39579778  .00000196  00000+0  16653-4 0  9998","line2":"2 59669  43.0048  16.5631 0001715 278.1569  81.9088 15.27576991134307","mean_motion":15.27576991,"eccentricity":0.0001715,"inclination_deg":43.0048,"raan_deg":16.5631,"arg_perigee_deg":278.1569,"mean_anomaly_deg":81.9088,"bstar":1.6653e-5,"rev_number":13430,"period_min":94.266934398988,"perigee_km":481.88141112223,"apogee_km":484.23480104362,"semimajor_km":6861.1951060829,"source":"CELESTRAK","updated_at":"2026-09-22T09:00:49.028667Z"}}